📊 Raw Sensor Data

Showing records 40751 to 40775 of 84,969 total

ID Distance (ft) Battery V Battery A Int Temp (°F) Int Humid (%) Ext Temp (°F) Solar V RSSI SNR Time Stamp
44231 15.4 3.94 5 93 43 83 5.10 -69 7 06/22/2025 04:00 PM
44230 15.4 3.94 5 92 43 84 5.10 -69 8 06/22/2025 03:45 PM
44229 15.4 3.98 6 92 41 81 5.10 -69 8 06/22/2025 03:30 PM
44228 15.4 4.12 6 91 42 83 5.10 -69 8 06/22/2025 03:15 PM
44227 15.4 3.94 6 90 42 81 5.10 -69 8 06/22/2025 03:00 PM
44226 15.4 3.94 6 89 41 81 5.10 -69 7 06/22/2025 02:45 PM
44225 15.3 3.94 6 89 41 82 5.10 -70 7 06/22/2025 02:30 PM
44224 15.3 4.12 6 88 41 81 5.10 -72 8 06/22/2025 02:15 PM
44223 15.4 3.94 6 86 41 80 5.10 -72 7 06/22/2025 02:00 PM
44222 15.3 4.12 6 84 42 78 5.10 -71 8 06/22/2025 01:30 PM
44221 15.4 3.94 6 83 42 79 5.10 -70 8 06/22/2025 01:15 PM
44220 15.4 3.93 6 82 42 76 5.10 -68 8 06/22/2025 01:00 PM
44219 15.4 3.93 0 81 42 76 5.10 -68 7 06/22/2025 12:45 PM
44218 15.4 3.96 6 80 42 78 5.10 -68 7 06/22/2025 12:30 PM
44217 15.4 3.93 5 79 43 76 5.10 -67 8 06/22/2025 12:15 PM
44216 15.4 4.00 6 78 42 76 5.10 -67 8 06/22/2025 12:00 PM
44215 15.4 3.93 6 77 42 76 5.10 -67 8 06/22/2025 11:45 AM
44214 15.4 3.93 7 76 42 76 5.10 -68 8 06/22/2025 11:30 AM
44213 15.4 3.94 7 76 42 74 5.10 -68 8 06/22/2025 11:15 AM
44212 15.4 3.93 7 75 42 74 5.10 -69 8 06/22/2025 11:00 AM
44211 15.4 3.93 7 74 42 74 5.10 -66 8 06/22/2025 10:45 AM
44210 15.7 3.93 0 73 42 73 5.10 -68 8 06/22/2025 10:30 AM
44209 15.4 3.95 7 73 42 71 5.10 -68 7 06/22/2025 10:15 AM
44208 15.4 3.92 0 72 42 71 5.10 -69 8 06/22/2025 10:00 AM
44207 15.4 3.92 0 71 42 71 5.10 -67 8 06/22/2025 09:45 AM